EN

Hourly Weather Tqibuli

Today, 15 April, Thursday

Time Temperature Precipitation Wind Pressure Humidity
00:00 +3°C° 0 mm 2 mps 688 mmHg 76%
01:00 +3°C° 0 mm 2 mps 688 mmHg 75%
02:00 +3°C° 0 mm 2 mps 688 mmHg 74%
03:00 +3°C° 0 mm 2 mps 688 mmHg 73%
04:00 +3°C° 0 mm 2 mps 688 mmHg 72%
05:00 +3°C° 0 mm 2 mps 688 mmHg 72%
06:00 +3°C° 0 mm 2 mps 688 mmHg 71%
07:00 +6°C° 0 mm 2 mps 688 mmHg 62%
08:00 +9°C° 0 mm 2 mps 688 mmHg 53%
09:00 +13°C° 0 mm 2 mps 689 mmHg 44%
10:00 +14°C° 0 mm 1 mps 689 mmHg 41%
11:00 +16°C° 0 mm 1 mps 689 mmHg 38%
12:00 +19°C° 0 mm 1 mps 689 mmHg 35%
13:00 +19°C° 0 mm 1 mps 688 mmHg 34%
14:00 +19°C° 0 mm 1 mps 688 mmHg 34%
15:00 +19°C° 0 mm 1 mps 688 mmHg 33%
16:00 +16°C° 0 mm 1 mps 688 mmHg 42%
17:00 +15°C° 0 mm 1 mps 688 mmHg 51%
18:00 +14°C° 0 mm 1 mps 687 mmHg 61%
19:00 +12°C° 0 mm 1 mps 688 mmHg 67%
20:00 +10°C° 0 mm 1 mps 688 mmHg 72%
21:00 +9°C° 0 mm 1 mps 688 mmHg 78%
22:00 +8°C° 0 mm 1 mps 688 mmHg 80%
23:00 +7°C° 0 mm 1 mps 688 mmHg 81%

Tomorrow, 16 April, Friday

Time Temperature Precipitation Wind Pressure Humidity
00:00 +6°C° 0 mm 1 mps 688 mmHg 83%
01:00 +5°C° 0 mm 2 mps 688 mmHg 81%
02:00 +5°C° 0 mm 2 mps 688 mmHg 79%
03:00 +5°C° 0 mm 2 mps 688 mmHg 76%
04:00 +5°C° 0 mm 2 mps 688 mmHg 75%
05:00 +5°C° 0 mm 2 mps 688 mmHg 73%
06:00 +5°C° 0 mm 2 mps 688 mmHg 72%
07:00 +8°C° 0 mm 2 mps 688 mmHg 63%
08:00 +12°C° 0 mm 2 mps 689 mmHg 54%
09:00 +15°C° 0 mm 2 mps 689 mmHg 46%
10:00 +17°C° 0 mm 2 mps 689 mmHg 42%
11:00 +18°C° 0 mm 2 mps 689 mmHg 39%
12:00 +20°C° 0 mm 2 mps 689 mmHg 35%
13:00 +20°C° 0 mm 2 mps 689 mmHg 34%
14:00 +20°C° 0 mm 2 mps 689 mmHg 33%
15:00 +20°C° 0 mm 2 mps 689 mmHg 32%
16:00 +18°C° 0 mm 2 mps 689 mmHg 43%
17:00 +16°C° 0 mm 2 mps 689 mmHg 54%
18:00 +15°C° 0 mm 1 mps 689 mmHg 65%
19:00 +13°C° 0 mm 1 mps 689 mmHg 71%
20:00 +11°C° 0 mm 1 mps 689 mmHg 78%
21:00 +9°C° 0 mm 1 mps 689 mmHg 84%
22:00 +9°C° 0 mm 1 mps 689 mmHg 85%
23:00 +8°C° 0 mm 1 mps 689 mmHg 86%

Day after tomorrow, 17 April, Saturday

Time Temperature Precipitation Wind Pressure Humidity
00:00 +8°C° 0 mm 1 mps 689 mmHg 87%
01:00 +8°C° 0 mm 1 mps 689 mmHg 86%
02:00 +8°C° 0 mm 1 mps 689 mmHg 86%
03:00 +7°C° 0 mm 0 mps 689 mmHg 86%
04:00 +8°C° 0 mm 1 mps 689 mmHg 85%
05:00 +8°C° 0 mm 1 mps 689 mmHg 84%
06:00 +9°C° 0 mm 1 mps 689 mmHg 83%
07:00 +10°C° 0 mm 1 mps 690 mmHg 80%
08:00 +11°C° 0 mm 1 mps 690 mmHg 76%
09:00 +12°C° 0 mm 1 mps 690 mmHg 72%
10:00 +12°C° 0.1 mm 1 mps 690 mmHg 73%
11:00 +13°C° 0.1 mm 2 mps 690 mmHg 75%
12:00 +13°C° 0.1 mm 2 mps 690 mmHg 76%
13:00 +13°C° 0.3 mm 2 mps 690 mmHg 77%
14:00 +13°C° 0.3 mm 2 mps 690 mmHg 78%
15:00 +13°C° 0.3 mm 2 mps 690 mmHg 78%
16:00 +13°C° 0 mm 1 mps 690 mmHg 80%
17:00 +13°C° 0 mm 1 mps 690 mmHg 82%
18:00 +13°C° 0 mm 1 mps 690 mmHg 83%
19:00 +12°C° 0 mm 1 mps 690 mmHg 87%
20:00 +11°C° 0 mm 1 mps 690 mmHg 91%
21:00 +9°C° 0 mm 1 mps 690 mmHg 95%
22:00 +10°C° 0.1 mm 1 mps 690 mmHg 94%
23:00 +10°C° 0.1 mm 1 mps 690 mmHg 94%

18 April, Sunday

Time Temperature Precipitation Wind Pressure Humidity
00:00 +10°C° 0.1 mm 1 mps 690 mmHg 93%
01:00 +10°C° 0 mm 1 mps 689 mmHg 91%
02:00 +9°C° 0 mm 2 mps 689 mmHg 89%
03:00 +10°C° 0 mm 2 mps 689 mmHg 87%
04:00 +10°C° 0.2 mm 2 mps 689 mmHg 86%
05:00 +10°C° 0.2 mm 2 mps 688 mmHg 86%
06:00 +10°C° 0.2 mm 2 mps 688 mmHg 85%
07:00 +13°C° 0.1 mm 2 mps 688 mmHg 80%
08:00 +14°C° 0.1 mm 2 mps 688 mmHg 76%
09:00 +15°C° 0.1 mm 2 mps 688 mmHg 71%
10:00 +17°C° 0 mm 2 mps 688 mmHg 64%
11:00 +19°C° 0 mm 2 mps 688 mmHg 57%
12:00 +21°C° 0 mm 2 mps 688 mmHg 50%
13:00 +21°C° 0.1 mm 2 mps 688 mmHg 52%
14:00 +21°C° 0.1 mm 2 mps 688 mmHg 53%
15:00 +21°C° 0.1 mm 2 mps 688 mmHg 54%
16:00 +19°C° 0.1 mm 2 mps 688 mmHg 60%
17:00 +19°C° 0.1 mm 1 mps 687 mmHg 66%
18:00 +18°C° 0.1 mm 1 mps 687 mmHg 72%
19:00 +16°C° 0.1 mm 1 mps 687 mmHg 75%
20:00 +14°C° 0.1 mm 1 mps 687 mmHg 78%
21:00 +13°C° 0.1 mm 1 mps 687 mmHg 82%
22:00 +12°C° 0.1 mm 2 mps 687 mmHg 83%
23:00 +12°C° 0.1 mm 2 mps 687 mmHg 84%

19 April, Monday

Time Temperature Precipitation Wind Pressure Humidity
00:00 +10°C° 0.1 mm 2 mps 687 mmHg 85%
01:00 +10°C° 0.1 mm 2 mps 687 mmHg 84%
02:00 +10°C° 0.1 mm 2 mps 687 mmHg 84%
03:00 +11°C° 0.1 mm 1 mps 687 mmHg 83%
04:00 +10°C° 0 mm 2 mps 687 mmHg 83%
05:00 +10°C° 0 mm 2 mps 687 mmHg 83%
06:00 +10°C° 0 mm 2 mps 687 mmHg 83%
07:00 +13°C° 0 mm 1 mps 687 mmHg 75%
08:00 +15°C° 0 mm 1 mps 688 mmHg 67%
09:00 +17°C° 0 mm 0 mps 688 mmHg 59%
10:00 +16°C° 0.3 mm 0 mps 688 mmHg 67%
11:00 +16°C° 0.3 mm 1 mps 688 mmHg 75%
12:00 +15°C° 0.3 mm 1 mps 688 mmHg 83%
13:00 +16°C° 0 mm 1 mps 688 mmHg 77%
14:00 +18°C° 0 mm 1 mps 688 mmHg 71%
15:00 +18°C° 0 mm 2 mps 688 mmHg 64%
16:00 +18°C° 0 mm 2 mps 687 mmHg 68%
17:00 +17°C° 0 mm 2 mps 687 mmHg 71%
18:00 +16°C° 0 mm 2 mps 686 mmHg 75%
19:00 +15°C° 0 mm 2 mps 686 mmHg 75%
20:00 +14°C° 0 mm 2 mps 686 mmHg 75%
21:00 +12°C° 0 mm 3 mps 685 mmHg 76%
22:00 +12°C° 0 mm 3 mps 685 mmHg 74%
23:00 +12°C° 0 mm 3 mps 685 mmHg 72%

20 April, Tuesday

Time Temperature Precipitation Wind Pressure Humidity
00:00 +12°C° 0 mm 3 mps 684 mmHg 71%
01:00 +12°C° 0 mm 3 mps 684 mmHg 69%
02:00 +13°C° 0 mm 4 mps 684 mmHg 67%
03:00 +13°C° 0 mm 4 mps 683 mmHg 65%
04:00 +13°C° 0 mm 4 mps 683 mmHg 66%
05:00 +13°C° 0 mm 4 mps 683 mmHg 67%
06:00 +13°C° 0 mm 3 mps 682 mmHg 69%
07:00 +14°C° 0 mm 3 mps 683 mmHg 68%
08:00 +17°C° 0 mm 3 mps 683 mmHg 67%
09:00 +18°C° 0 mm 3 mps 683 mmHg 66%
10:00 +19°C° 0 mm 3 mps 683 mmHg 61%
11:00 +21°C° 0 mm 4 mps 682 mmHg 55%
12:00 +22°C° 0 mm 4 mps 682 mmHg 50%
13:00 +21°C° 0.1 mm 4 mps 682 mmHg 57%
14:00 +19°C° 0.1 mm 4 mps 682 mmHg 64%
15:00 +17°C° 0.1 mm 4 mps 682 mmHg 71%
16:00 +14°C° 1.2 mm 4 mps 682 mmHg 80%
17:00 +13°C° 1.2 mm 3 mps 682 mmHg 89%
18:00 +12°C° 1.2 mm 2 mps 683 mmHg 98%
19:00 +10°C° 0.6 mm 2 mps 683 mmHg 98%
20:00 +10°C° 0.6 mm 2 mps 684 mmHg 98%
21:00 +9°C° 0.6 mm 2 mps 684 mmHg 98%
22:00 +9°C° 0.2 mm 2 mps 685 mmHg 98%
23:00 +9°C° 0.2 mm 2 mps 685 mmHg 98%
Show more

We Need Your Consent

Meteoprog and our Service Providers may store and access personal data such as cookies, device identifiers or other similar technologies on your device and process such data to personalise content and ads, as well as provide social media features and to analyse the traffic.

  • Store and/or access information on your device

    Cookies, device identifiers or other information can be stored or accessed on your device for the purposes indicated above.

  • Personalised ads and content, ad and content measurement, audience insights, and products development

    Ads and content can be personalised based on a profile. More data can be added to better personalise ads and content. Ad and content performance can be measured. Insights about the audience who saw the ads and content can be derived. Such data can be used to develop or improve user’s experience, systems and software.

By clicking ‘I Agree’ you will allow the use of indicated cookies, device identifiers, web beacons or other similar technologies. Your settings can be changed in the browser on your device.

For certain purposes, legitimate interests may be relied on, rather than consent. You can read more about this in our Privacy and Cookie Policy.